Total_Precipitation_Accumulation
0.13 0.14 0.16 0.16 0.18 0.34 0.69 0.90 0.59 0.10 0.10 0.32 0.23 0.07 0.00 0.00 0.00 0.00 0.00 0.00 0.00 0.00 0.00 0.01 0.00 0.00 0.00 0.00 0.00 0.00 0.00 0.00 0.00 0.00 0.00 0.00 0.00 0.00 0.00 0.00 0.00 0.00 0.00 0.00
0.16 0.15 0.16 0.18 0.20 0.42 0.81 1.19 0.47 0.38 0.19 0.16 0.06 0.01 0.01 0.00 0.00 0.00 0.00 0.00 0.00 0.00 0.00 0.01 0.01 0.01 0.00 0.00 0.00 0.00 0.00 0.00 0.00 0.00 0.00 0.00 0.00 0.00 0.00 0.00 0.00 0.00 0.01 0.00
0.21 0.19 0.18 0.21 0.31 0.46 1.00 1.25 0.63 0.72 0.39 0.04 0.01 0.02 0.02 0.00 0.00 0.00 0.00 0.00 0.00 0.00 0.03 0.02 0.03 0.04 0.01 0.00 0.00 0.00 0.00 0.00 0.00 0.00 0.00 0.00 0.00 0.00 0.00 0.00 0.00 0.00 0.00 0.00
0.30 0.29 0.32 0.36 0.43 0.63 1.62 1.67 0.46 0.24 0.26 0.12 0.02 0.01 0.00 0.00 0.00 0.00 0.00 0.00 0.00 0.02 0.00 0.04 0.05 0.08 0.04 0.00 0.00 0.00 0.00 0.00 0.00 0.00 0.00 0.00 0.00 0.00 0.00 0.00 0.00 0.00 0.00 0.00
0.38 0.41 0.48 0.55 0.60 0.94 2.13 1.61 0.24 0.05 0.03 0.02 0.03 0.03 0.02 0.00 0.00 0.00 0.00 0.00 0.00 0.01 0.03 0.02 0.06 0.13 0.24 0.06 0.00 0.00 0.00 0.00 0.00 0.00 0.00 0.00 0.00 0.00 0.00 0.00 0.00 0.00 0.00 0.00
0.46 0.48 0.56 0.74 0.87 1.55 2.71 1.20 0.09 0.05 0.07 0.06 0.04 0.02 0.01 0.00 0.00 0.00 0.00 0.00 0.00 0.00 0.02 0.03 0.04 0.07 0.08 0.06 0.00 0.00 0.00 0.00 0.00 0.01 0.00 0.00 0.00 0.00 0.00 0.00 0.00 0.00 0.00 0.00
0.43 0.53 0.60 0.77 0.94 1.50 1.76 0.55 0.06 0.16 0.21 0.08 0.02 0.00 0.00 0.00 0.00 0.00 0.00 0.00 0.00 0.00 0.00 0.11 0.11 0.10 0.07 0.01 0.02 0.02 0.00 0.00 0.01 0.02 0.00 0.00 0.00 0.00 0.00 0.00 0.00 0.00 0.00 0.00
0.37 0.50 0.64 0.76 0.80 1.09 1.10 0.50 0.08 0.22 0.16 0.06 0.03 0.02 0.01 0.01 0.01 0.00 0.00 0.00 0.00 0.00 0.02 0.12 0.31 0.27 0.18 0.05 0.03 0.02 0.01 0.01 0.07 0.04 0.02 0.00 0.00 0.00 0.00 0.00 0.00 0.00 0.00 0.00
0.37 0.40 0.59 0.61 0.66 0.86 0.89 0.63 0.26 0.31 0.33 0.05 0.02 0.06 0.04 0.02 0.02 0.03 0.01 0.00 0.00 0.01 0.03 0.12 0.17 0.30 0.22 0.02 0.03 0.00 0.01 0.01 0.06 0.10 0.02 0.00 0.00 0.00 0.00 0.00 0.00 0.00 0.00 0.00
0.39 0.36 0.39 0.54 0.53 0.72 0.81 0.71 0.40 0.50 0.47 0.16 0.07 0.16 0.11 0.03 0.03 0.05 0.04 0.03 0.05 0.11 0.15 0.16 0.10 0.05 0.07 0.05 0.03 0.06 0.03 0.03 0.04 0.07 0.10 0.01 0.00 0.00 0.00 0.00 0.00 0.00 0.00 0.00
0.39 0.32 0.30 0.42 0.46 0.57 0.74 0.63 0.43 0.57 0.54 0.23 0.27 0.20 0.14 0.08 0.06 0.06 0.02 0.14 0.08 0.20 0.23 0.13 0.06 0.02 0.01 0.01 0.01 0.03 0.09 0.07 0.04 0.06 0.06 0.02 0.00 0.00 0.00 0.00 0.00 0.00 0.00 0.00
0.34 0.31 0.32 0.37 0.40 0.48 0.70 0.57 0.42 0.44 0.62 0.33 0.38 0.20 0.11 0.13 0.02 0.04 0.07 0.04 0.01 0.09 0.13 0.09 0.05 0.02 0.01 0.00 0.00 0.00 0.01 0.03 0.07 0.03 0.01 0.00 0.00 0.00 0.00 0.00 0.00 0.00 0.00 0.00
0.32 0.33 0.36 0.40 0.39 0.50 0.66 0.44 0.42 0.54 0.95 0.46 0.23 0.21 0.07 0.14 0.08 0.08 0.21 0.06 0.02 0.03 0.08 0.15 0.11 0.04 0.00 0.00 0.00 0.01 0.01 0.01 0.01 0.01 0.00 0.01 0.03 0.04 0.00 0.00 0.00 0.00 0.00 0.00
0.35 0.31 0.35 0.42 0.53 0.60 0.59 0.35 0.44 0.62 1.04 0.59 0.26 0.35 0.23 0.12 0.12 0.03 0.07 0.06 0.05 0.15 0.13 0.33 0.21 0.06 0.01 0.00 0.00 0.00 0.00 0.01 0.01 0.00 0.00 0.01 0.00 0.01 0.01 0.00 0.00 0.00 0.00 0.00
0.33 0.32 0.39 0.61 0.79 0.80 0.62 0.31 0.35 0.46 0.86 0.52 0.24 0.33 0.28 0.26 0.19 0.07 0.05 0.05 0.26 0.45 0.31 0.22 0.11 0.04 0.03 0.01 0.00 0.00 0.00 0.00 0.00 0.00 0.00 0.00 0.00 0.00 0.00 0.00 0.00 0.00 0.00 0.00
0.38 0.38 0.57 0.93 1.01 0.81 0.75 1.09 0.58 0.35 0.67 0.89 0.48 0.37 0.33 0.43 0.41 0.27 0.10 0.11 0.46 0.65 0.58 0.26 0.08 0.03 0.05 0.02 0.00 0.00 0.00 0.00 0.01 0.00 0.01 0.00 0.00 0.00 0.00 0.00 0.00 0.00 0.00 0.00
0.40 0.48 0.79 0.87 0.61 0.37 0.71 0.79 0.75 0.47 0.54 0.82 0.62 0.50 0.35 0.53 0.43 0.32 0.20 0.16 0.23 0.44 0.68 0.57 0.25 0.10 0.06 0.02 0.00 0.00 0.00 0.00 0.00 0.00 0.00 0.00 0.00 0.00 0.00 0.00 0.00 0.00 0.00 0.00
0.48 0.64 0.71 0.62 0.48 0.51 0.39 0.45 0.64 0.33 0.44 0.64 0.65 0.61 0.66 0.91 0.52 0.33 0.22 0.23 0.29 0.28 0.42 0.41 0.39 0.28 0.29 0.13 0.00 0.00 0.00 0.00 0.00 0.00 0.00 0.00 0.00 0.00 0.00 0.00 0.00 0.00 0.00 0.00
0.55 0.74 0.87 0.90 0.68 0.60 0.45 0.92 1.12 0.61 0.50 0.48 0.37 0.64 1.00 1.29 0.84 0.38 0.43 0.34 0.37 0.25 0.24 0.21 0.40 0.38 0.22 0.12 0.02 0.01 0.01 0.01 0.01 0.00 0.00 0.00 0.00 0.00 0.00 0.00 0.00 0.00 0.00 0.00
0.55 0.72 0.97 1.11 0.69 0.57 0.69 1.27 1.31 0.82 0.45 0.33 0.28 0.46 0.96 1.29 1.35 0.58 0.49 0.53 0.27 0.18 0.11 0.19 0.23 0.16 0.02 0.03 0.05 0.01 0.01 0.00 0.01 0.01 0.01 0.01 0.00 0.00 0.00 0.00 0.00 0.00 0.00 0.01
0.57 0.63 0.68 0.74 0.86 0.95 1.02 1.14 0.94 0.49 0.22 0.10 0.06 0.16 0.66 1.18 1.33 0.78 0.62 0.67 0.47 0.14 0.10 0.16 0.17 0.04 0.10 0.10 0.07 0.03 0.01 0.01 0.01 0.00 0.00 0.00 0.00 0.00 0.00 0.00 0.01 0.02 0.04 0.05
0.51 0.56 0.65 0.94 0.82 0.78 0.62 0.69 0.56 0.19 0.06 0.03 0.05 0.10 0.29 1.00 1.25 0.87 0.70 0.51 0.61 0.30 0.13 0.08 0.06 0.08 0.01 0.03 0.02 0.01 0.01 0.01 0.01 0.01 0.01 0.01 0.01 0.02 0.02 0.03 0.04 0.07 0.11 0.18
0.70 0.41 0.52 0.56 0.48 0.42 0.32 0.28 0.18 0.07 0.05 0.06 0.11 0.18 0.21 0.61 1.13 0.99 0.80 0.49 0.35 0.37 0.24 0.08 0.02 0.02 0.02 0.02 0.01 0.00 0.00 0.00 0.00 0.01 0.02 0.03 0.04 0.04 0.06 0.09 0.16 0.21 0.28 0.36
0.54 0.43 0.25 0.39 0.20 0.19 0.14 0.09 0.06 0.02 0.03 0.05 0.08 0.21 0.41 0.54 0.67 0.73 0.77 0.69 0.44 0.49 0.29 0.14 0.10 0.06 0.05 0.03 0.01 0.01 0.02 0.03 0.04 0.06 0.06 0.06 0.08 0.12 0.19 0.27 0.32 0.29 0.33 0.37
0.54 0.24 0.19 0.25 0.13 0.15 0.17 0.08 0.05 0.03 0.04 0.06 0.16 0.31 0.50 0.61 0.58 0.44 0.39 0.61 0.50 0.34 0.21 0.15 0.16 0.13 0.11 0.11 0.10 0.12 0.13 0.12 0.13 0.16 0.17 0.23 0.24 0.23 0.32 0.36 0.32 0.18 0.14 0.11
0.31 0.26 0.32 0.18 0.15 0.28 0.22 0.11 0.12 0.09 0.07 0.11 0.28 0.53 0.57 0.52 0.42 0.34 0.27 0.23 0.17 0.17 0.19 0.20 0.18 0.19 0.21 0.20 0.21 0.25 0.31 0.35 0.39 0.39 0.35 0.34 0.32 0.27 0.25 0.21 0.13 0.12 0.08 0.08
0.24 0.40 0.33 0.22 0.32 0.43 0.33 0.23 0.21 0.19 0.16 0.17 0.23 0.38 0.48 0.34 0.24 0.28 0.19 0.18 0.22 0.24 0.25 0.26 0.25 0.27 0.30 0.32 0.32 0.35 0.35 0.36 0.36 0.34 0.28 0.23 0.18 0.09 0.04 0.05 0.05 0.03 0.02 0.01